カタログに戻る

STARLINK-4293

運用中通信VLEO
NORAD 52989·PAYLOAD·🇺🇸 United States

打ち上げ Jul 7, 2022 から Cape Canaveral Space Force Station

Loading…

次のパス (今後24時間)

TLE

最新Source: CelesTrak SupGP

元期: Sep 15, 2026, 02:21 UTC

1 52989C 22076D   26258.09840278  .00430760  00000+0  99140-3 0  2584
2 52989  53.2123 286.3638 0001828  74.1073  90.8080 15.96326196    12

AllMySatでSTARLINK-4293をリアルタイム追跡

Download on the App Store